Marcel — ONDP — position and weather

sailwx.info

Track history (hours):
 
Tides and Currents Weather Stations Pressure Air Temp Water Temp Dewpoint Dewpoint Depression Visibility Wind Speed Wind Dir Waves Ship Positions

Marcel

Last reported at 2014-Nov-22 18:14 UTC. Time now 2014-Nov-24 16:13 UTC.
Position N 46°29' W 002°26'.

Length 88 m; draft 5.6 m.

Type: Cargo ship. MMSI: 205439000.

Date/timePositionNaut miles runAvg speedWind from/ knotsBaromVisibWave heightAir tempDewpointWater temp
2014-Nov-22 18:14N 46°29' W 002°26'16 9.5
2014-Nov-22 16:33N 46°20' W 002°07'9 9.3
2014-Nov-22 15:33N 46°15' W 001°56'13 9.0
2014-Nov-22 14:05N 46°08' W 001°39'6 8.8
2014-Nov-22 13:26N 46°08' W 001°31'7 8.1
2014-Nov-22 12:33N 46°06' W 001°21'6 6.2
2014-Nov-22 11:33N 46°10' W 001°13'0 0.1
2014-Nov-22 10:32N 46°10' W 001°13'0 0.0
2014-Nov-22 09:18N 46°10' W 001°13'0 0.0
2014-Nov-22 08:28N 46°10' W 001°13'0 0.0
2014-Nov-22 07:32N 46°10' W 001°13'0 0.0
2014-Nov-22 06:31N 46°10' W 001°13'0 0.0
2014-Nov-22 05:30N 46°10' W 001°13'0 0.0
2014-Nov-22 04:26N 46°10' W 001°13'0 0.0
2014-Nov-22 03:30N 46°10' W 001°13'0 0.0
2014-Nov-22 02:31N 46°10' W 001°13'0 0.0
2014-Nov-22 01:31N 46°10' W 001°13'0 0.0
2014-Nov-22 00:32N 46°10' W 001°13'0 0.0
2014-Nov-21 23:32N 46°10' W 001°13'0 0.0
2014-Nov-21 22:33N 46°10' W 001°13'0 0.0
2014-Nov-21 21:31N 46°10' W 001°13'0 0.0
2014-Nov-21 20:31N 46°10' W 001°13'0 0.0
2014-Nov-21 19:32N 46°10' W 001°13'0 0.0
2014-Nov-21 18:31N 46°10' W 001°13'0 0.0
2014-Nov-21 17:30N 46°10' W 001°13'0 0.0
2014-Nov-21 16:32N 46°10' W 001°13'0 0.0
2014-Nov-21 15:29N 46°10' W 001°13'0 0.0
2014-Nov-21 14:32N 46°10' W 001°13'0 0.0
2014-Nov-21 13:33N 46°10' W 001°13'0 0.0
2014-Nov-21 12:32N 46°10' W 001°13'0 0.0
2014-Nov-21 11:33N 46°10' W 001°13'0 0.0
2014-Nov-21 10:33N 46°10' W 001°13'0 0.0
2014-Nov-21 09:32N 46°10' W 001°13'0 0.1
2014-Nov-21 08:31N 46°09' W 001°13'0 0.0
2014-Nov-21 07:32N 46°09' W 001°13'0 0.0
2014-Nov-21 06:32N 46°09' W 001°13'0 0.0
2014-Nov-21 05:32N 46°09' W 001°13'0 0.0
2014-Nov-21 04:31N 46°09' W 001°13'0 0.0
2014-Nov-21 03:32N 46°09' W 001°13'0 0.0
2014-Nov-21 02:30N 46°09' W 001°13'0 0.0
2014-Nov-21 01:31N 46°09' W 001°13'0 0.0
2014-Nov-21 00:30N 46°09' W 001°13'0 0.0
2014-Nov-20 23:33N 46°09' W 001°13'0 0.0
2014-Nov-20 22:31N 46°09' W 001°13'0 0.0
2014-Nov-20 21:33N 46°09' W 001°13'0 0.0
2014-Nov-20 20:33N 46°09' W 001°13'0 0.0
2014-Nov-20 19:32N 46°09' W 001°13'0 0.0
2014-Nov-20 18:28N 46°09' W 001°13'0 0.0
2014-Nov-20 17:31N 46°09' W 001°13'0 0.0
2014-Nov-20 16:33N 46°09' W 001°13'0 0.0
2014-Nov-20 15:30N 46°09' W 001°13'0 0.0
2014-Nov-20 14:33N 46°09' W 001°13'0 0.0
2014-Nov-20 13:31N 46°09' W 001°13'0 0.0
2014-Nov-20 12:32N 46°09' W 001°13'0 0.0
2014-Nov-20 11:32N 46°09' W 001°13'0 0.0
2014-Nov-20 10:32N 46°09' W 001°13'0 0.0
2014-Nov-20 09:31N 46°09' W 001°13'0 0.0
2014-Nov-20 08:31N 46°09' W 001°13'0 0.0
2014-Nov-20 07:33N 46°09' W 001°13'0 0.0
2014-Nov-20 06:31N 46°09' W 001°13'0 0.0
2014-Nov-20 05:32N 46°09' W 001°13'0 0.0
2014-Nov-20 04:32N 46°09' W 001°13'0 0.0
2014-Nov-20 03:31N 46°09' W 001°13'0 0.0
2014-Nov-20 02:33N 46°09' W 001°13'0 0.0
2014-Nov-20 01:31N 46°09' W 001°13'0 0.0
2014-Nov-20 00:31N 46°09' W 001°13'0 0.0
2014-Nov-19 23:31N 46°09' W 001°13'0 0.0
2014-Nov-19 22:33N 46°09' W 001°13'0 0.0
2014-Nov-19 21:31N 46°09' W 001°13'0 0.0
2014-Nov-19 20:32N 46°09' W 001°13'0 0.0
2014-Nov-19 19:33N 46°09' W 001°13'0 0.0
2014-Nov-19 18:31N 46°09' W 001°13'0 0.0
2014-Nov-19 17:33N 46°09' W 001°13'0 0.0
2014-Nov-19 16:33N 46°09' W 001°13'0 0.0
2014-Nov-19 15:31N 46°09' W 001°13'0 0.0
2014-Nov-19 14:33N 46°09' W 001°13'0 0.0
2014-Nov-19 13:33N 46°09' W 001°13'0 0.0
2014-Nov-19 12:24N 46°09' W 001°13'0 0.0
2014-Nov-19 11:30N 46°09' W 001°13'0 0.0
2014-Nov-19 10:25N 46°09' W 001°13'0 0.0
2014-Nov-19 09:33N 46°09' W 001°13'0 0.0
2014-Nov-19 08:33N 46°09' W 001°13'0 0.0
2014-Nov-19 07:33N 46°09' W 001°13'0 0.0
2014-Nov-19 06:33N 46°09' W 001°13'0 0.0
2014-Nov-19 05:32N 46°09' W 001°13'0 0.0
2014-Nov-19 04:33N 46°09' W 001°13'0 0.0
2014-Nov-19 03:33N 46°09' W 001°13'0 0.0
2014-Nov-19 02:27N 46°09' W 001°13'0 0.0
2014-Nov-19 01:33N 46°09' W 001°13'0 0.0
2014-Nov-19 00:32N 46°09' W 001°13'0 0.0
2014-Nov-18 23:31N 46°09' W 001°13'4 3.9
2014-Nov-18 22:34N 46°06' W 001°16'11 9.9
2014-Nov-18 21:24N 46°07' W 001°32'  
2014-Nov-15 03:33N 37°59' W 009°37'7 6.7
2014-Nov-15 02:33N 37°53' W 009°35'7 6.6
2014-Nov-15 01:33N 37°46' W 009°33'8 6.5
2014-Nov-15 00:19N 37°38' W 009°31'71 5.5
2014-Nov-14 11:26N 36°44' W 008°34'7 7.6
2014-Nov-14 10:32N 36°44' W 008°25'  
Track history (hours):
 
Tides and Currents Weather Stations Pressure Air Temp Water Temp Dewpoint Dewpoint Depression Visibility Wind Speed Wind Dir Waves Ship Positions

Marcel

Last reported at 2014-Nov-22 18:14 UTC. Time now 2014-Nov-24 16:13 UTC.
Position N 46°29' W 002°26'.

Length 88 m; draft 5.6 m.

Type: Cargo ship. MMSI: 205439000.

Date/timePositionNaut miles runAvg speedWind from/ knotsBaromVisibWave heightAir tempDewpointWater temp
2014-Nov-22 18:14N 46°29' W 002°26'16 9.5
2014-Nov-22 16:33N 46°20' W 002°07'9 9.3
2014-Nov-22 15:33N 46°15' W 001°56'13 9.0
2014-Nov-22 14:05N 46°08' W 001°39'6 8.8
2014-Nov-22 13:26N 46°08' W 001°31'7 8.1
2014-Nov-22 12:33N 46°06' W 001°21'6 6.2
2014-Nov-22 11:33N 46°10' W 001°13'0 0.1
2014-Nov-22 10:32N 46°10' W 001°13'0 0.0
2014-Nov-22 09:18N 46°10' W 001°13'0 0.0
2014-Nov-22 08:28N 46°10' W 001°13'0 0.0
2014-Nov-22 07:32N 46°10' W 001°13'0 0.0
2014-Nov-22 06:31N 46°10' W 001°13'0 0.0
2014-Nov-22 05:30N 46°10' W 001°13'0 0.0
2014-Nov-22 04:26N 46°10' W 001°13'0 0.0
2014-Nov-22 03:30N 46°10' W 001°13'0 0.0
2014-Nov-22 02:31N 46°10' W 001°13'0 0.0
2014-Nov-22 01:31N 46°10' W 001°13'0 0.0
2014-Nov-22 00:32N 46°10' W 001°13'0 0.0
2014-Nov-21 23:32N 46°10' W 001°13'0 0.0
2014-Nov-21 22:33N 46°10' W 001°13'0 0.0
2014-Nov-21 21:31N 46°10' W 001°13'0 0.0
2014-Nov-21 20:31N 46°10' W 001°13'0 0.0
2014-Nov-21 19:32N 46°10' W 001°13'0 0.0
2014-Nov-21 18:31N 46°10' W 001°13'0 0.0
2014-Nov-21 17:30N 46°10' W 001°13'0 0.0
2014-Nov-21 16:32N 46°10' W 001°13'0 0.0
2014-Nov-21 15:29N 46°10' W 001°13'0 0.0
2014-Nov-21 14:32N 46°10' W 001°13'0 0.0
2014-Nov-21 13:33N 46°10' W 001°13'0 0.0
2014-Nov-21 12:32N 46°10' W 001°13'0 0.0
2014-Nov-21 11:33N 46°10' W 001°13'0 0.0
2014-Nov-21 10:33N 46°10' W 001°13'0 0.0
2014-Nov-21 09:32N 46°10' W 001°13'0 0.1
2014-Nov-21 08:31N 46°09' W 001°13'0 0.0
2014-Nov-21 07:32N 46°09' W 001°13'0 0.0
2014-Nov-21 06:32N 46°09' W 001°13'0 0.0
2014-Nov-21 05:32N 46°09' W 001°13'0 0.0
2014-Nov-21 04:31N 46°09' W 001°13'0 0.0
2014-Nov-21 03:32N 46°09' W 001°13'0 0.0
2014-Nov-21 02:30N 46°09' W 001°13'0 0.0
2014-Nov-21 01:31N 46°09' W 001°13'0 0.0
2014-Nov-21 00:30N 46°09' W 001°13'0 0.0
2014-Nov-20 23:33N 46°09' W 001°13'0 0.0
2014-Nov-20 22:31N 46°09' W 001°13'0 0.0
2014-Nov-20 21:33N 46°09' W 001°13'0 0.0
2014-Nov-20 20:33N 46°09' W 001°13'0 0.0
2014-Nov-20 19:32N 46°09' W 001°13'0 0.0
2014-Nov-20 18:28N 46°09' W 001°13'0 0.0
2014-Nov-20 17:31N 46°09' W 001°13'0 0.0
2014-Nov-20 16:33N 46°09' W 001°13'0 0.0
2014-Nov-20 15:30N 46°09' W 001°13'0 0.0
2014-Nov-20 14:33N 46°09' W 001°13'0 0.0
2014-Nov-20 13:31N 46°09' W 001°13'0 0.0
2014-Nov-20 12:32N 46°09' W 001°13'0 0.0
2014-Nov-20 11:32N 46°09' W 001°13'0 0.0
2014-Nov-20 10:32N 46°09' W 001°13'0 0.0
2014-Nov-20 09:31N 46°09' W 001°13'0 0.0
2014-Nov-20 08:31N 46°09' W 001°13'0 0.0
2014-Nov-20 07:33N 46°09' W 001°13'0 0.0
2014-Nov-20 06:31N 46°09' W 001°13'0 0.0
2014-Nov-20 05:32N 46°09' W 001°13'0 0.0
2014-Nov-20 04:32N 46°09' W 001°13'0 0.0
2014-Nov-20 03:31N 46°09' W 001°13'0 0.0
2014-Nov-20 02:33N 46°09' W 001°13'0 0.0
2014-Nov-20 01:31N 46°09' W 001°13'0 0.0
2014-Nov-20 00:31N 46°09' W 001°13'0 0.0
2014-Nov-19 23:31N 46°09' W 001°13'0 0.0
2014-Nov-19 22:33N 46°09' W 001°13'0 0.0
2014-Nov-19 21:31N 46°09' W 001°13'0 0.0
2014-Nov-19 20:32N 46°09' W 001°13'0 0.0
2014-Nov-19 19:33N 46°09' W 001°13'0 0.0
2014-Nov-19 18:31N 46°09' W 001°13'0 0.0
2014-Nov-19 17:33N 46°09' W 001°13'0 0.0
2014-Nov-19 16:33N 46°09' W 001°13'0 0.0
2014-Nov-19 15:31N 46°09' W 001°13'0 0.0
2014-Nov-19 14:33N 46°09' W 001°13'0 0.0
2014-Nov-19 13:33N 46°09' W 001°13'0 0.0
2014-Nov-19 12:24N 46°09' W 001°13'0 0.0
2014-Nov-19 11:30N 46°09' W 001°13'0 0.0
2014-Nov-19 10:25N 46°09' W 001°13'0 0.0
2014-Nov-19 09:33N 46°09' W 001°13'0 0.0
2014-Nov-19 08:33N 46°09' W 001°13'0 0.0
2014-Nov-19 07:33N 46°09' W 001°13'0 0.0
2014-Nov-19 06:33N 46°09' W 001°13'0 0.0
2014-Nov-19 05:32N 46°09' W 001°13'0 0.0
2014-Nov-19 04:33N 46°09' W 001°13'0 0.0
2014-Nov-19 03:33N 46°09' W 001°13'0 0.0
2014-Nov-19 02:27N 46°09' W 001°13'0 0.0
2014-Nov-19 01:33N 46°09' W 001°13'0 0.0
2014-Nov-19 00:32N 46°09' W 001°13'0 0.0
2014-Nov-18 23:31N 46°09' W 001°13'4 3.9
2014-Nov-18 22:34N 46°06' W 001°16'11 9.9
2014-Nov-18 21:24N 46°07' W 001°32'  
2014-Nov-15 03:33N 37°59' W 009°37'7 6.7
2014-Nov-15 02:33N 37°53' W 009°35'7 6.6
2014-Nov-15 01:33N 37°46' W 009°33'8 6.5
2014-Nov-15 00:19N 37°38' W 009°31'71 5.5
2014-Nov-14 11:26N 36°44' W 008°34'7 7.6
2014-Nov-14 10:32N 36°44' W 008°25'  

Dump ship's entire track history